Hourly Data Report for October 01, 2015

All times are specified in Local Standard Time (LST). Add 1 hour to adjust for Daylight Saving Time where and when it is observed.

CHARLOTTETOWN A
PRINCE EDWARD ISLAND

46°17'21.000" N
63°07'09.000" W
48.50 m
8300301
71706
YYG

Download Data

Hourly Data (October 2015)
Hourly Data Report for October 1, 2015
Temp Definition
°C
Dew Point Temp Definition
°C
Rel Hum Definition
%
Wind Dir Definition
10's deg

Wind Spd Definition
km/h
Visibility Definition
km
Stn Press Definition
kPa
Hmdx Definition


Wind Chill Definition


Weather Definition


TIME
00:00 Legend Double Dagger 20.0 19.2 95 15 39 8.1 100.39 27   Moderate Rain Showers,Fog
01:00 Legend Double Dagger 20.1 19.1 94 16 41 9.7 100.29 27   Rain Showers,Fog
02:00 Legend Double Dagger 20.4 19.4 94 17 39 9.7 100.24 27   Rain Showers,Fog
03:00 Legend Double Dagger 20.2 19.6 96 18 33 6.4 100.21 27   Moderate Rain Showers,Fog
04:00 Legend Double Dagger 18.7 17.4 92 25 25 4.8 100.28     Moderate Rain Showers,Fog
05:00 Legend Double Dagger 16.7 16.4 98 27 12 6.4 100.37     Moderate Rain Showers,Fog
06:00 Legend Double Dagger 14.1 13.6 97 30 19 4.8 100.55     Rain Showers,Fog
07:00 Legend Double Dagger 12.7 12.2 97 33 23 11.3 100.72     Rain Showers
08:00 Legend Double Dagger 11.9 11.3 96 36 32 4.0 100.86     Rain Showers,Fog
09:00 Legend Double Dagger 12.1 11.5 96 36 22 8.1 101.02     Rain Showers,Fog
10:00 Legend Double Dagger 11.7 10.5 92 35 28 12.9 101.11     LegendNANA
11:00 Legend Double Dagger 11.4 10.0 91 35 27 16.1 101.20     Drizzle
12:00 Legend Double Dagger 11.5 9.6 88 36 23 12.9 101.32     Drizzle
13:00 Legend Double Dagger 10.9 9.3 90 36 27 12.9 101.39     Drizzle
14:00 Legend Double Dagger 10.8 8.9 88 36 26 19.3 101.44     Drizzle
15:00 Legend Double Dagger 10.3 8.6 89 35 25 19.3 101.54     Drizzle
16:00 Legend Double Dagger 9.9 8.7 92 35 24 16.1 101.57     Drizzle
17:00 Legend Double Dagger 9.7 8.2 90 36 22 16.1 101.64     Drizzle
18:00 Legend Double Dagger 9.6 8.1 90 36 26 24.1 101.71     Drizzle
19:00 Legend Double Dagger 9.6 7.7 88 36 26 19.3 101.76     Rain Showers
20:00 Legend Double Dagger 9.3 8.2 93 1 25 12.9 101.81     Rain Showers
21:00 Legend Double Dagger 9.4 8.0 91 1 25 24.1 101.85     LegendNANA
22:00 Legend Double Dagger 9.2 7.7 90 36 23 24.1 101.79     LegendNANA
23:00 Legend Double Dagger 9.3 7.8 90 1 23 9.7 101.79     Rain Showers,Fog

Notes on Data Quality.

Legend

  • E = Estimated
  • M = Missing
  • NA = Not Available
  • ‡ = Partner data that is not subject to review by the National Climate Archives
Date modified: